{"data":{"norad_id":67144,"epoch":"2026-05-25T03:37:10.701120Z","epoch_age_seconds":72493,"freshness":"FRESH","line1":"1 67144U 25301M   26145.15081830  .00018170  00000+0  65795-3 0  9998","line2":"2 67144  51.8774  55.1633 0001395 251.8413 108.2418 15.28443826 25500","mean_motion":15.28443826,"eccentricity":0.0001395,"inclination_deg":51.8774,"raan_deg":55.1633,"arg_perigee_deg":251.8413,"mean_anomaly_deg":108.2418,"bstar":0.00065795,"rev_number":2550,"period_min":94.21347225881,"perigee_km":479.50693373374,"apogee_km":481.42048333142,"semimajor_km":6858.6007085326,"source":"CELESTRAK","updated_at":"2026-05-25T13:38:06.751167Z"}}